Flag for U.S.A. Weather past 2 weeks in Dallas, Texas, U.S.A.

Now
79 °F

Overcast.


Feels Like: 81 °F
Forecast: 67 / 77 °F
Wind: 6 mph from Southwest

Location: Dallas Love Field

Current Time: May 29, 2015 at 7:30:30 PM

Latest Report: May 29, 2015 at 6:53 PM


Visibility: 10 mi

Pressure: 29.90 "Hg

Humidity: 65%

Dew point: 66 °F

Location of DallasLocation

Historic Weather in Dallas — Graph

°F

Dallas temperature yesterday

Maximum temperature yesterday: 89 °F (at 4:53 PM)
Minimum temperature yesterday: 68 °F (at 11:53 PM)
Average temperature yesterday: 80 °F

Past Weeks' High & Low Weather Summary

 TemperatureHumidityPressure
High90 °F (May 18, 3:53 PM)100% (May 29, 1:50 AM)30.22 "Hg (May 29, 1:50 AM)
Low56 °F (May 21, 6:53 AM)40% (May 18, 6:53 PM)29.71 "Hg (May 16, 6:53 PM)
Average73 °F79%29.97 "Hg
* Reported May 14 5:53 PM — May 29 5:53 PM, Dallas, Weather by CustomWeather, © 2015

Note: Actual official high and low records may vary slightly from our data, if they occured in-between our weather recording intervals... More about our weather records

Advertising

Dallas weather history for previous 24 hours

 ConditionsComfort  
Time TempWeatherWind HumidityBarometerVisibility
5:53 PM
Fri, May 29
79 °FOvercast.7 mph65%29.89 "Hg10 mi
4:53 PM79 °FMore clouds than sun.6 mph65%29.89 "Hg10 mi
3:53 PM78 °FMostly cloudy.10 mph66%29.91 "Hg10 mi
2:53 PM77 °FPartly sunny.10 mph71%29.93 "Hg10 mi
1:53 PM75 °FCloudy.9 mph76%29.92 "Hg10 mi
12:53 PM76 °FBroken clouds.8 mph77%29.93 "Hg10 mi
11:59 AM74 °FMostly cloudy.10 mph82%29.94 "Hg10 mi
10:53 AM72 °FMostly cloudy.8 mph87%29.92 "Hg10 mi
9:53 AM71 °FMostly cloudy.6 mph90%29.90 "Hg10 mi
8:53 AM71 °FOvercast.6 mph90%29.88 "Hg8 mi
7:53 AM71 °FPartly sunny.No wind90%29.86 "Hg10 mi
6:53 AM71 °FPassing clouds.6 mph90%29.81 "Hg10 mi
5:53 AM70 °FLight rain. Low clouds.13 mph90%29.82 "Hg8 mi
4:53 AM69 °FThunderstorms. Fog.8 mph93%29.87 "Hg5 mi
3:53 AM68 °FThunderstorms. Fog.No wind96%29.89 "Hg2 mi
1:53 AM67 °FStrong thunderstorms. Fog.21 mph97%29.90 "Hg1 mi
1:50 AM66 °FStrong thunderstorms. Fog.17 mph100%29.95 "Hg1 mi
12:53 AM68 °FThunderstorms. Fog.15 mph90%29.90 "Hg4 mi
11:53 PM
Thu, May 28
68 °FThunderstorms. Fog.15 mph90%29.94 "Hg2 mi
10:53 PM71 °FThunderstorms. Passing clouds.16 mph76%29.94 "Hg10 mi
9:53 PM82 °FMostly cloudy.14 mph70%29.91 "Hg9 mi
8:53 PM82 °FMore clouds than sun.10 mph67%29.91 "Hg10 mi
7:53 PM83 °FBroken clouds.15 mph63%29.90 "Hg9 mi
Weather by CustomWeather, © 2015

See weather overviewHow to use our weather pages